Time,TemperatureF,DewpointF,PressureIn,WindDirection,WindDirectionDegrees,WindSpeedMPH,WindSpeedGustMPH,Humidity,HourlyPrecipIn,Conditions,Clouds,dailyrainin,SoftwareType,DateUTC
2013-01-05 00:00:00,27.7,22.9,30.47,North,4,1.0,1.0,82,0.00,,,0.00,Wunderground v.1.15,2013-01-05 05:00:00,
2013-01-05 00:04:00,27.5,22.7,30.47,North,5,0.0,1.0,82,0.00,,,0.00,Wunderground v.1.15,2013-01-05 05:04:00,
2013-01-05 00:10:00,27.2,22.7,30.47,North,4,0.0,0.0,83,0.00,,,0.00,Wunderground v.1.15,2013-01-05 05:10:00,
2013-01-05 00:16:00,27.3,23.1,30.47,NNW,333,0.0,1.0,84,0.00,,,0.00,Wunderground v.1.15,2013-01-05 05:16:00,
2013-01-05 00:22:00,27.0,22.2,30.47,NW,319,1.0,1.0,82,0.00,,,0.00,Wunderground v.1.15,2013-01-05 05:22:00,
2013-01-05 00:26:00,27.0,22.2,30.47,NW,322,1.0,1.0,82,0.00,,,0.00,Wunderground v.1.15,2013-01-05 05:26:00,
2013-01-05 00:32:00,27.4,22.3,30.48,WSW,256,1.0,1.0,81,0.00,,,0.00,Wunderground v.1.15,2013-01-05 05:32:00,
2013-01-05 00:38:00,28.1,23.0,30.48,WSW,257,2.0,3.0,81,0.00,,,0.00,Wunderground v.1.15,2013-01-05 05:38:00,
2013-01-05 00:44:00,28.0,23.2,30.48,West,266,2.0,3.0,82,0.00,,,0.00,Wunderground v.1.15,2013-01-05 05:44:00,
2013-01-05 00:50:00,28.7,23.6,30.48,WSW,257,2.0,2.0,81,0.00,,,0.00,Wunderground v.1.15,2013-01-05 05:50:00,
2013-01-05 00:56:00,28.3,23.5,30.48,SSW,195,1.0,2.0,82,0.00,,,0.00,Wunderground v.1.15,2013-01-05 05:56:00,
2013-01-05 01:02:00,28.8,24.3,30.48,West,264,1.0,2.0,83,0.00,,,0.00,Wunderground v.1.15,2013-01-05 06:02:00,
2013-01-05 01:08:00,28.9,24.7,30.49,WSW,254,2.0,2.0,84,0.00,,,0.00,Wunderground v.1.15,2013-01-05 06:08:00,
2013-01-05 01:14:00,28.8,24.6,30.48,West,278,1.0,2.0,84,0.00,,,0.00,Wunderground v.1.15,2013-01-05 06:14:00,
2013-01-05 01:20:00,28.7,25.0,30.48,West,268,1.0,2.0,86,0.00,,,0.00,Wunderground v.1.15,2013-01-05 06:20:00,
2013-01-05 01:26:00,28.4,24.5,30.48,West,268,1.0,2.0,85,0.00,,,0.00,Wunderground v.1.15,2013-01-05 06:26:00,
2013-01-05 01:32:00,27.6,23.4,30.48,WNW,295,1.0,3.0,84,0.00,,,0.00,Wunderground v.1.15,2013-01-05 06:32:00,
2013-01-05 01:38:00,27.2,23.8,30.49,WNW,294,2.0,3.0,87,0.00,,,0.00,Wunderground v.1.15,2013-01-05 06:38:00,
2013-01-05 01:44:00,27.1,24.3,30.49,NNW,328,1.0,2.0,89,0.00,,,0.00,Wunderground v.1.15,2013-01-05 06:44:00,
2013-01-05 01:50:00,27.2,24.1,30.49,NNW,338,0.0,2.0,88,0.00,,,0.00,Wunderground v.1.15,2013-01-05 06:50:00,
2013-01-05 01:56:00,26.7,23.6,30.48,NNE,25,0.0,2.0,88,0.00,,,0.00,Wunderground v.1.15,2013-01-05 06:56:00,
2013-01-05 02:02:00,26.2,23.1,30.48,North,359,1.0,2.0,88,0.00,,,0.00,Wunderground v.1.15,2013-01-05 07:02:00,
2013-01-05 02:08:00,26.2,23.7,30.48,North,350,1.0,2.0,90,0.00,,,0.00,Wunderground v.1.15,2013-01-05 07:08:00,
2013-01-05 02:14:00,26.1,23.3,30.48,NNW,332,1.0,2.0,89,0.00,,,0.00,Wunderground v.1.15,2013-01-05 07:14:00,
2013-01-05 02:20:00,25.9,22.8,30.47,NNE,13,2.0,2.0,88,0.00,,,0.00,Wunderground v.1.15,2013-01-05 07:20:00,
2013-01-05 02:26:00,26.1,23.6,30.48,NNW,345,1.0,2.0,90,0.00,,,0.00,Wunderground v.1.15,2013-01-05 07:26:00,
2013-01-05 02:32:00,26.6,24.1,30.48,NW,325,1.0,2.0,90,0.00,,,0.00,Wunderground v.1.15,2013-01-05 07:32:00,
2013-01-05 02:38:00,27.0,24.7,30.47,NNE,15,2.0,3.0,91,0.00,,,0.00,Wunderground v.1.15,2013-01-05 07:38:00,
2013-01-05 02:44:00,27.2,24.9,30.47,North,11,2.0,4.0,91,0.00,,,0.00,Wunderground v.1.15,2013-01-05 07:44:00,
2013-01-05 02:50:00,27.1,24.8,30.46,NNE,29,3.0,4.0,91,0.00,,,0.00,Wunderground v.1.15,2013-01-05 07:50:00,
2013-01-05 02:56:00,27.9,25.9,30.46,NNE,25,5.0,5.0,92,0.00,,,0.00,Wunderground v.1.15,2013-01-05 07:56:00,
2013-01-05 03:02:00,28.2,25.9,30.46,NNE,18,5.0,5.0,91,0.00,,,0.00,Wunderground v.1.15,2013-01-05 08:02:00,
2013-01-05 03:07:00,28.4,26.1,30.45,North,9,4.0,5.0,91,0.00,,,0.00,Wunderground v.1.15,2013-01-05 08:07:00,
2013-01-05 03:14:00,28.5,26.2,30.45,NNE,18,4.0,4.0,91,0.00,,,0.00,Wunderground v.1.15,2013-01-05 08:14:00,
2013-01-05 03:20:00,28.5,25.9,30.46,NW,314,3.0,3.0,90,0.00,,,0.00,Wunderground v.1.15,2013-01-05 08:20:00,
2013-01-05 03:26:00,28.3,25.7,30.46,NNW,333,2.0,3.0,90,0.00,,,0.00,Wunderground v.1.15,2013-01-05 08:26:00,
2013-01-05 03:32:00,28.2,25.4,30.46,WNW,291,1.0,2.0,89,0.00,,,0.00,Wunderground v.1.15,2013-01-05 08:32:00,
2013-01-05 03:38:00,28.1,25.3,30.46,NW,322,1.0,2.0,89,0.00,,,0.00,Wunderground v.1.15,2013-01-05 08:38:00,
2013-01-05 03:44:00,28.0,25.2,30.45,North,1,2.0,3.0,89,0.00,,,0.00,Wunderground v.1.15,2013-01-05 08:44:00,
2013-01-05 03:50:00,28.0,25.2,30.45,NNW,346,2.0,2.0,89,0.00,,,0.00,Wunderground v.1.15,2013-01-05 08:50:00,
2013-01-05 03:56:00,27.9,25.1,30.45,NNE,16,1.0,2.0,89,0.00,,,0.00,Wunderground v.1.15,2013-01-05 08:56:00,
2013-01-05 04:02:00,28.0,24.9,30.45,NNW,342,1.0,2.0,88,0.00,,,0.00,Wunderground v.1.15,2013-01-05 09:02:00,
2013-01-05 04:08:00,27.8,25.0,30.45,NW,322,1.0,2.0,89,0.00,,,0.00,Wunderground v.1.15,2013-01-05 09:08:00,
2013-01-05 04:14:00,27.7,24.6,30.45,NNW,342,0.0,2.0,88,0.00,,,0.00,Wunderground v.1.15,2013-01-05 09:14:00,
2013-01-05 04:20:00,27.1,24.0,30.45,NNW,342,0.0,2.0,88,0.00,,,0.00,Wunderground v.1.15,2013-01-05 09:20:00,
2013-01-05 04:26:00,26.7,23.9,30.44,NNW,340,0.0,2.0,89,0.00,,,0.00,Wunderground v.1.15,2013-01-05 09:26:00,
2013-01-05 04:32:00,26.4,23.9,30.44,WNW,290,0.0,2.0,90,0.00,,,0.00,Wunderground v.1.15,2013-01-05 09:32:00,
2013-01-05 04:38:00,26.4,23.9,30.44,NE,43,0.0,2.0,90,0.00,,,0.00,Wunderground v.1.15,2013-01-05 09:38:00,
2013-01-05 04:44:00,27.2,24.7,30.44,NW,325,1.0,2.0,90,0.00,,,0.00,Wunderground v.1.15,2013-01-05 09:44:00,
2013-01-05 04:50:00,26.8,24.3,30.44,North,11,1.0,2.0,90,0.00,,,0.00,Wunderground v.1.15,2013-01-05 09:50:00,
2013-01-05 04:56:00,27.0,24.5,30.44,NNW,340,1.0,2.0,90,0.00,,,0.00,Wunderground v.1.15,2013-01-05 09:56:00,
2013-01-05 05:02:00,27.2,24.7,30.45,NNW,336,2.0,2.0,90,0.00,,,0.00,Wunderground v.1.15,2013-01-05 10:02:00,
2013-01-05 05:08:00,27.3,24.8,30.44,North,349,1.0,2.0,90,0.00,,,0.00,Wunderground v.1.15,2013-01-05 10:08:00,
2013-01-05 05:14:00,27.1,24.6,30.45,WSW,255,0.0,2.0,90,0.00,,,0.00,Wunderground v.1.15,2013-01-05 10:14:00,
2013-01-05 05:20:00,27.3,25.0,30.45,West,269,0.0,2.0,91,0.00,,,0.00,Wunderground v.1.15,2013-01-05 10:20:00,
2013-01-05 05:26:00,27.4,25.1,30.45,WNW,287,1.0,2.0,91,0.00,,,0.00,Wunderground v.1.15,2013-01-05 10:26:00,
2013-01-05 05:32:00,27.3,24.8,30.46,WNW,283,1.0,2.0,90,0.00,,,0.00,Wunderground v.1.15,2013-01-05 10:32:00,
2013-01-05 05:38:00,27.1,24.6,30.46,WNW,284,1.0,2.0,90,0.00,,,0.00,Wunderground v.1.15,2013-01-05 10:38:00,
2013-01-05 05:44:00,27.0,24.7,30.46,WNW,295,2.0,2.0,91,0.00,,,0.00,Wunderground v.1.15,2013-01-05 10:44:00,
2013-01-05 05:50:00,26.6,24.1,30.45,North,360,1.0,2.0,90,0.00,,,0.00,Wunderground v.1.15,2013-01-05 10:50:00,
2013-01-05 05:56:00,26.0,23.5,30.46,West,276,1.0,2.0,90,0.00,,,0.00,Wunderground v.1.15,2013-01-05 10:56:00,
2013-01-05 06:02:00,25.9,23.6,30.46,NW,318,1.0,2.0,91,0.00,,,0.00,Wunderground v.1.15,2013-01-05 11:02:00,
2013-01-05 06:08:00,26.3,24.3,30.46,NNE,21,2.0,2.0,92,0.00,,,0.00,Wunderground v.1.15,2013-01-05 11:08:00,
2013-01-05 06:14:00,26.1,24.1,30.45,NE,39,2.0,3.0,92,0.00,,,0.00,Wunderground v.1.15,2013-01-05 11:14:00,
2013-01-05 06:19:00,26.0,24.0,30.46,NNE,32,3.0,3.0,92,0.00,,,0.00,Wunderground v.1.15,2013-01-05 11:19:00,
2013-01-05 06:26:00,25.9,23.9,30.46,NNE,25,3.0,3.0,92,0.00,,,0.00,Wunderground v.1.15,2013-01-05 11:26:00,
2013-01-05 06:32:00,26.2,23.9,30.45,NNE,26,3.0,3.0,91,0.00,,,0.00,Wunderground v.1.15,2013-01-05 11:32:00,
2013-01-05 06:38:00,26.5,24.0,30.46,NNW,328,2.0,3.0,90,0.00,,,0.00,Wunderground v.1.15,2013-01-05 11:38:00,
2013-01-05 06:44:00,26.3,23.5,30.46,NNW,347,2.0,2.0,89,0.00,,,0.00,Wunderground v.1.15,2013-01-05 11:44:00,
2013-01-05 06:50:00,26.5,23.7,30.46,NW,319,2.0,2.0,89,0.00,,,0.00,Wunderground v.1.15,2013-01-05 11:50:00,
2013-01-05 06:55:00,26.8,24.0,30.47,North,360,2.0,3.0,89,0.00,,,0.00,Wunderground v.1.15,2013-01-05 11:55:00,
2013-01-05 07:02:00,27.0,23.9,30.47,North,358,2.0,4.0,88,0.00,,,0.00,Wunderground v.1.15,2013-01-05 12:02:00,
2013-01-05 07:07:00,27.2,24.1,30.47,NNE,22,2.0,4.0,88,0.00,,,0.00,Wunderground v.1.15,2013-01-05 12:07:00,
2013-01-05 07:14:00,27.2,23.8,30.47,North,349,2.0,2.0,87,0.00,,,0.00,Wunderground v.1.15,2013-01-05 12:14:00,
2013-01-05 07:20:00,27.1,23.7,30.47,NNW,332,1.0,2.0,87,0.00,,,0.00,Wunderground v.1.15,2013-01-05 12:20:00,
2013-01-05 07:26:00,27.1,23.5,30.47,North,359,2.0,3.0,86,0.00,,,0.00,Wunderground v.1.15,2013-01-05 12:26:00,
2013-01-05 07:32:00,27.4,23.5,30.47,North,359,2.0,2.0,85,0.00,,,0.00,Wunderground v.1.15,2013-01-05 12:32:00,
2013-01-05 07:38:00,27.4,23.2,30.48,NNW,345,1.0,2.0,84,0.00,,,0.00,Wunderground v.1.15,2013-01-05 12:38:00,
2013-01-05 07:44:00,27.5,23.3,30.49,North,352,1.0,2.0,84,0.00,,,0.00,Wunderground v.1.15,2013-01-05 12:44:00,
2013-01-05 07:50:00,27.7,23.2,30.49,NW,325,1.0,2.0,83,0.00,,,0.00,Wunderground v.1.15,2013-01-05 12:50:00,
2013-01-05 07:56:00,27.5,23.3,30.49,NW,323,0.0,2.0,84,0.00,,,0.00,Wunderground v.1.15,2013-01-05 12:56:00,
2013-01-05 08:02:00,27.4,23.2,30.49,NW,323,0.0,2.0,84,0.00,,,0.00,Wunderground v.1.15,2013-01-05 13:02:00,
2013-01-05 08:08:00,27.0,23.1,30.49,NNW,333,0.0,2.0,85,0.00,,,0.00,Wunderground v.1.15,2013-01-05 13:08:00,
2013-01-05 08:14:00,26.6,23.3,30.49,North,355,0.0,2.0,87,0.00,,,0.00,Wunderground v.1.15,2013-01-05 13:14:00,
2013-01-05 08:20:00,26.8,23.4,30.49,NNW,347,0.0,2.0,87,0.00,,,0.00,Wunderground v.1.15,2013-01-05 13:20:00,
2013-01-05 08:26:00,26.7,23.4,30.48,NNW,333,0.0,2.0,87,0.00,,,0.00,Wunderground v.1.15,2013-01-05 13:26:00,
2013-01-05 08:31:00,27.1,24.0,30.48,NNW,338,1.0,2.0,88,0.00,,,0.00,Wunderground v.1.15,2013-01-05 13:31:00,
2013-01-05 08:38:00,27.6,24.5,30.48,NNE,18,2.0,3.0,88,0.00,,,0.00,Wunderground v.1.15,2013-01-05 13:38:00,
2013-01-05 08:43:00,28.3,25.2,30.48,NE,36,4.0,5.0,88,0.00,,,0.00,Wunderground v.1.15,2013-01-05 13:43:00,
2013-01-05 08:50:00,28.9,25.5,30.48,NE,34,3.0,3.0,87,0.00,,,0.00,Wunderground v.1.15,2013-01-05 13:50:00,
2013-01-05 08:56:00,29.3,25.9,30.47,NE,44,2.0,3.0,87,0.00,,,0.00,Wunderground v.1.15,2013-01-05 13:56:00,
2013-01-05 09:02:00,29.7,26.6,30.47,NNE,29,2.0,4.0,88,0.00,,,0.00,Wunderground v.1.15,2013-01-05 14:02:00,
2013-01-05 09:08:00,30.1,27.0,30.47,NE,41,2.0,6.0,88,0.00,,,0.00,Wunderground v.1.15,2013-01-05 14:08:00,
2013-01-05 09:14:00,30.2,27.3,30.47,NE,45,3.0,3.0,89,0.00,,,0.00,Wunderground v.1.15,2013-01-05 14:14:00,
2013-01-05 09:20:00,30.6,27.7,30.47,North,352,3.0,3.0,89,0.00,,,0.00,Wunderground v.1.15,2013-01-05 14:20:00,
2013-01-05 09:26:00,31.1,28.2,30.46,NE,43,2.0,3.0,89,0.00,,,0.00,Wunderground v.1.15,2013-01-05 14:26:00,
2013-01-05 09:32:00,31.2,28.1,30.46,NE,49,3.0,4.0,88,0.00,,,0.00,Wunderground v.1.15,2013-01-05 14:32:00,
2013-01-05 09:38:00,31.4,28.3,30.45,NE,46,5.0,7.0,88,0.00,,,0.00,Wunderground v.1.15,2013-01-05 14:38:00,
2013-01-05 09:44:00,31.7,28.6,30.46,NNE,16,6.0,7.0,88,0.00,,,0.00,Wunderground v.1.15,2013-01-05 14:44:00,
2013-01-05 09:50:00,32.0,28.8,30.47,NNE,27,5.0,9.0,88,0.00,,,0.00,Wunderground v.1.15,2013-01-05 14:50:00,
2013-01-05 09:56:00,32.1,28.4,30.47,NNE,31,6.0,9.0,86,0.00,,,0.00,Wunderground v.1.15,2013-01-05 14:56:00,
2013-01-05 10:02:00,32.5,27.9,30.47,NNE,23,5.0,6.0,83,0.00,,,0.00,Wunderground v.1.15,2013-01-05 15:02:00,
2013-01-05 10:08:00,33.0,28.1,30.46,NE,39,5.0,6.0,82,0.00,,,0.00,Wunderground v.1.15,2013-01-05 15:08:00,
2013-01-05 10:14:00,33.3,28.1,30.46,NE,46,5.0,7.0,81,0.00,,,0.00,Wunderground v.1.15,2013-01-05 15:14:00,
2013-01-05 10:20:00,33.7,27.3,30.45,NE,52,5.0,5.0,77,0.00,,,0.00,Wunderground v.1.15,2013-01-05 15:20:00,
2013-01-05 10:26:00,34.0,27.2,30.45,NE,56,6.0,7.0,76,0.00,,,0.00,Wunderground v.1.15,2013-01-05 15:26:00,
2013-01-05 10:32:00,34.3,26.5,30.45,NNE,25,7.0,7.0,73,0.00,,,0.00,Wunderground v.1.15,2013-01-05 15:32:00,
2013-01-05 10:38:00,34.3,26.2,30.45,NE,39,8.0,10.0,72,0.00,,,0.00,Wunderground v.1.15,2013-01-05 15:38:00,
2013-01-05 10:44:00,34.7,27.3,30.45,NE,36,7.0,9.0,74,0.00,,,0.00,Wunderground v.1.15,2013-01-05 15:44:00,
2013-01-05 10:50:00,35.0,26.9,30.44,NNE,26,6.0,6.0,72,0.00,,,0.00,Wunderground v.1.15,2013-01-05 15:50:00,
2013-01-05 10:55:00,35.3,26.8,30.45,NNE,19,7.0,8.0,71,0.00,,,0.00,Wunderground v.1.15,2013-01-05 15:55:00,
2013-01-05 11:02:00,35.7,26.2,30.44,NNE,30,6.0,6.0,68,0.00,,,0.00,Wunderground v.1.15,2013-01-05 16:02:00,
2013-01-05 11:08:00,36.1,26.9,30.44,NE,45,5.0,8.0,69,0.00,,,0.00,Wunderground v.1.15,2013-01-05 16:08:00,
2013-01-05 11:14:00,36.1,26.6,30.43,NE,42,5.0,9.0,68,0.00,,,0.00,Wunderground v.1.15,2013-01-05 16:14:00,
2013-01-05 11:20:00,36.1,26.9,30.43,NE,44,7.0,7.0,69,0.00,,,0.00,Wunderground v.1.15,2013-01-05 16:20:00,
2013-01-05 11:26:00,36.6,26.7,30.44,North,352,5.0,7.0,67,0.00,,,0.00,Wunderground v.1.15,2013-01-05 16:26:00,
2013-01-05 11:32:00,36.9,26.2,30.44,NE,39,4.0,5.0,65,0.00,,,0.00,Wunderground v.1.15,2013-01-05 16:32:00,
2013-01-05 11:38:00,37.4,26.3,30.43,NNE,29,4.0,5.0,64,0.00,,,0.00,Wunderground v.1.15,2013-01-05 16:38:00,
2013-01-05 11:43:00,37.4,25.2,30.43,NNE,32,4.0,6.0,61,0.00,,,0.00,Wunderground v.1.15,2013-01-05 16:43:00,
2013-01-05 11:50:00,37.7,25.5,30.42,NE,39,5.0,5.0,61,0.00,,,0.00,Wunderground v.1.15,2013-01-05 16:50:00,
2013-01-05 11:55:00,38.3,26.0,30.42,East,89,4.0,5.0,61,0.00,,,0.00,Wunderground v.1.15,2013-01-05 16:55:00,
2013-01-05 12:02:00,38.2,24.7,30.42,ENE,77,4.0,4.0,58,0.00,,,0.00,Wunderground v.1.15,2013-01-05 17:02:00,
2013-01-05 12:10:00,38.7,25.6,30.41,North,1,3.0,3.0,59,0.00,,,0.00,Wunderground v.1.15,2013-01-05 17:10:00,
2013-01-05 12:16:00,39.4,26.7,30.41,East,94,2.0,4.0,60,0.00,,,0.00,Wunderground v.1.15,2013-01-05 17:16:00,
2013-01-05 12:22:00,39.3,26.6,30.41,East,95,2.0,2.0,60,0.00,,,0.00,Wunderground v.1.15,2013-01-05 17:22:00,
2013-01-05 12:28:00,39.7,26.5,30.41,ESE,110,1.0,2.0,59,0.00,,,0.00,Wunderground v.1.15,2013-01-05 17:28:00,
2013-01-05 12:34:00,40.0,26.8,30.41,ESE,109,1.0,2.0,59,0.00,,,0.00,Wunderground v.1.15,2013-01-05 17:34:00,
2013-01-05 12:40:00,40.6,26.5,30.40,NE,42,1.0,3.0,57,0.00,,,0.00,Wunderground v.1.15,2013-01-05 17:40:00,
2013-01-05 12:46:00,40.0,26.8,30.39,East,82,2.0,3.0,59,0.00,,,0.00,Wunderground v.1.15,2013-01-05 17:46:00,
2013-01-05 12:52:00,40.0,27.2,30.39,ESE,115,2.0,2.0,60,0.00,,,0.00,Wunderground v.1.15,2013-01-05 17:52:00,
2013-01-05 12:58:00,40.6,27.0,30.39,ESE,109,2.0,2.0,58,0.00,,,0.00,Wunderground v.1.15,2013-01-05 17:58:00,
2013-01-05 13:04:00,40.5,26.9,30.38,ENE,77,2.0,2.0,58,0.00,,,0.00,Wunderground v.1.15,2013-01-05 18:04:00,
2013-01-05 13:09:00,40.9,27.7,30.38,ESE,114,1.0,2.0,59,0.00,,,0.00,Wunderground v.1.15,2013-01-05 18:09:00,
2013-01-05 13:16:00,41.1,27.9,30.38,ENE,72,2.0,4.0,59,0.00,,,0.00,Wunderground v.1.15,2013-01-05 18:16:00,
2013-01-05 13:22:00,40.9,27.2,30.37,ENE,66,3.0,3.0,58,0.00,,,0.00,Wunderground v.1.15,2013-01-05 18:22:00,
2013-01-05 13:28:00,41.0,27.3,30.36,ESE,113,2.0,3.0,58,0.00,,,0.00,Wunderground v.1.15,2013-01-05 18:28:00,
2013-01-05 13:34:00,41.4,28.5,30.35,SE,125,2.0,4.0,60,0.00,,,0.00,Wunderground v.1.15,2013-01-05 18:34:00,
2013-01-05 13:40:00,41.6,27.5,30.35,SSE,159,3.0,3.0,57,0.00,,,0.00,Wunderground v.1.15,2013-01-05 18:40:00,
2013-01-05 13:48:00,42.0,27.4,30.35,East,83,2.0,3.0,56,0.00,,,0.00,Wunderground v.1.15,2013-01-05 18:48:00,
2013-01-05 13:53:00,42.2,26.7,30.35,East,79,2.0,2.0,54,0.00,,,0.00,Wunderground v.1.15,2013-01-05 18:53:00,
2013-01-05 14:00:00,41.9,26.0,30.34,NE,38,2.0,2.0,53,0.00,,,0.00,Wunderground v.1.15,2013-01-05 19:00:00,
2013-01-05 14:06:00,42.0,27.0,30.33,ENE,77,2.0,2.0,55,0.00,,,0.00,Wunderground v.1.15,2013-01-05 19:06:00,
2013-01-05 14:12:00,42.2,26.3,30.33,East,81,1.0,2.0,53,0.00,,,0.00,Wunderground v.1.15,2013-01-05 19:12:00,
2013-01-05 14:18:00,42.3,27.3,30.33,ESE,108,1.0,3.0,55,0.00,,,0.00,Wunderground v.1.15,2013-01-05 19:18:00,
2013-01-05 14:24:00,42.4,26.9,30.33,ESE,117,1.0,2.0,54,0.00,,,0.00,Wunderground v.1.15,2013-01-05 19:24:00,
2013-01-05 14:30:00,42.4,26.9,30.33,ESE,104,1.0,2.0,54,0.00,,,0.00,Wunderground v.1.15,2013-01-05 19:30:00,
2013-01-05 14:36:00,42.5,27.0,30.32,East,81,1.0,2.0,54,0.00,,,0.00,Wunderground v.1.15,2013-01-05 19:36:00,
2013-01-05 14:41:00,42.5,27.5,30.32,ESE,103,2.0,2.0,55,0.00,,,0.00,Wunderground v.1.15,2013-01-05 19:41:00,
2013-01-05 14:48:00,42.6,28.0,30.32,ESE,112,2.0,3.0,56,0.00,,,0.00,Wunderground v.1.15,2013-01-05 19:48:00,
2013-01-05 14:54:00,42.7,28.1,30.32,East,82,2.0,4.0,56,0.00,,,0.00,Wunderground v.1.15,2013-01-05 19:54:00,
2013-01-05 15:00:00,42.6,28.0,30.32,East,92,3.0,3.0,56,0.00,,,0.00,Wunderground v.1.15,2013-01-05 20:00:00,
2013-01-05 15:06:00,42.3,26.8,30.32,ESE,102,3.0,3.0,54,0.00,,,0.00,Wunderground v.1.15,2013-01-05 20:06:00,
2013-01-05 15:12:00,42.4,27.4,30.33,ESE,102,2.0,2.0,55,0.00,,,0.00,Wunderground v.1.15,2013-01-05 20:12:00,
2013-01-05 15:18:00,42.5,27.9,30.32,ENE,74,1.0,2.0,56,0.00,,,0.00,Wunderground v.1.15,2013-01-05 20:18:00,
2013-01-05 15:24:00,42.6,28.4,30.33,East,83,2.0,2.0,57,0.00,,,0.00,Wunderground v.1.15,2013-01-05 20:24:00,
2013-01-05 15:29:00,42.6,28.4,30.32,East,100,2.0,2.0,57,0.00,,,0.00,Wunderground v.1.15,2013-01-05 20:29:00,
2013-01-05 15:36:00,42.5,27.9,30.32,ENE,77,3.0,4.0,56,0.00,,,0.00,Wunderground v.1.15,2013-01-05 20:36:00,
2013-01-05 15:44:00,42.5,28.3,30.32,East,90,3.0,3.0,57,0.00,,,0.00,Wunderground v.1.15,2013-01-05 20:44:00,
2013-01-05 15:50:00,42.5,27.5,30.32,ENE,77,3.0,3.0,55,0.00,,,0.00,Wunderground v.1.15,2013-01-05 20:50:00,
2013-01-05 15:56:00,42.6,28.4,30.32,East,84,2.0,3.0,57,0.00,,,0.00,Wunderground v.1.15,2013-01-05 20:56:00,
2013-01-05 16:02:00,42.6,28.4,30.32,ESE,114,1.0,2.0,57,0.00,,,0.00,Wunderground v.1.15,2013-01-05 21:02:00,
2013-01-05 16:08:00,42.7,28.1,30.32,ESE,117,1.0,2.0,56,0.00,,,0.00,Wunderground v.1.15,2013-01-05 21:08:00,
2013-01-05 16:14:00,42.9,28.3,30.32,ESE,115,0.0,2.0,56,0.00,,,0.00,Wunderground v.1.15,2013-01-05 21:14:00,
2013-01-05 16:20:00,43.0,27.9,30.32,ESE,115,0.0,2.0,55,0.00,,,0.00,Wunderground v.1.15,2013-01-05 21:20:00,
2013-01-05 16:26:00,43.0,28.4,30.32,ESE,115,0.0,2.0,56,0.00,,,0.00,Wunderground v.1.15,2013-01-05 21:26:00,
2013-01-05 16:32:00,43.0,28.4,30.32,ESE,115,0.0,2.0,56,0.00,,,0.00,Wunderground v.1.15,2013-01-05 21:32:00,
2013-01-05 16:38:00,42.9,29.1,30.32,ESE,105,0.0,2.0,58,0.00,,,0.00,Wunderground v.1.15,2013-01-05 21:38:00,
2013-01-05 16:43:00,42.8,28.2,30.32,ESE,104,0.0,2.0,56,0.00,,,0.00,Wunderground v.1.15,2013-01-05 21:43:00,
2013-01-05 16:50:00,42.8,28.2,30.32,ESE,105,0.0,2.0,56,0.00,,,0.00,Wunderground v.1.15,2013-01-05 21:50:00,
2013-01-05 16:56:00,42.9,29.1,30.31,East,90,0.0,2.0,58,0.00,,,0.00,Wunderground v.1.15,2013-01-05 21:56:00,
2013-01-05 17:02:00,42.8,29.5,30.32,ESE,115,1.0,2.0,59,0.00,,,0.00,Wunderground v.1.15,2013-01-05 22:02:00,
2013-01-05 17:08:00,42.7,28.9,30.32,SSE,148,0.0,2.0,58,0.00,,,0.00,Wunderground v.1.15,2013-01-05 22:08:00,
2013-01-05 17:14:00,42.7,28.9,30.32,SSE,148,0.0,2.0,58,0.00,,,0.00,Wunderground v.1.15,2013-01-05 22:14:00,
2013-01-05 17:20:00,42.7,28.9,30.32,SSE,148,0.0,2.0,58,0.00,,,0.00,Wunderground v.1.15,2013-01-05 22:20:00,
2013-01-05 17:26:00,42.7,28.9,30.31,SSE,148,0.0,2.0,58,0.00,,,0.00,Wunderground v.1.15,2013-01-05 22:26:00,
2013-01-05 17:32:00,42.6,29.7,30.31,East,101,0.0,2.0,60,0.00,,,0.00,Wunderground v.1.15,2013-01-05 22:32:00,
2013-01-05 17:37:00,42.4,29.1,30.30,East,85,0.0,2.0,59,0.00,,,0.00,Wunderground v.1.15,2013-01-05 22:37:00,
2013-01-05 17:44:00,42.5,30.0,30.31,East,95,0.0,2.0,61,0.00,,,0.00,Wunderground v.1.15,2013-01-05 22:44:00,
2013-01-05 17:49:00,42.5,30.0,30.32,SSW,209,0.0,2.0,61,0.00,,,0.00,Wunderground v.1.15,2013-01-05 22:49:00,
2013-01-05 17:56:00,42.4,29.5,30.33,WSW,257,0.0,2.0,60,0.00,,,0.00,Wunderground v.1.15,2013-01-05 22:56:00,
2013-01-05 18:02:00,42.3,29.8,30.33,WNW,284,1.0,2.0,61,0.00,,,0.00,Wunderground v.1.15,2013-01-05 23:02:00,
2013-01-05 18:07:00,42.2,30.1,30.33,West,267,1.0,2.0,62,0.00,,,0.00,Wunderground v.1.15,2013-01-05 23:07:00,
2013-01-05 18:14:00,42.2,29.3,30.32,West,267,1.0,2.0,60,0.00,,,0.00,Wunderground v.1.15,2013-01-05 23:14:00,
2013-01-05 18:19:00,42.1,30.0,30.33,West,259,0.0,2.0,62,0.00,,,0.00,Wunderground v.1.15,2013-01-05 23:19:00,
2013-01-05 18:26:00,42.0,30.3,30.33,West,259,0.0,2.0,63,0.00,,,0.00,Wunderground v.1.15,2013-01-05 23:26:00,
2013-01-05 18:32:00,42.0,29.9,30.33,West,278,0.0,2.0,62,0.00,,,0.00,Wunderground v.1.15,2013-01-05 23:32:00,
2013-01-05 18:38:00,41.9,29.8,30.32,West,278,0.0,2.0,62,0.00,,,0.00,Wunderground v.1.15,2013-01-05 23:38:00,
2013-01-05 18:44:00,41.9,30.2,30.32,West,278,0.0,2.0,63,0.00,,,0.00,Wunderground v.1.15,2013-01-05 23:44:00,
2013-01-05 18:50:00,41.8,30.1,30.33,West,262,0.0,2.0,63,0.00,,,0.00,Wunderground v.1.15,2013-01-05 23:50:00,
2013-01-05 18:55:00,41.9,30.2,30.33,West,262,0.0,2.0,63,0.00,,,0.00,Wunderground v.1.15,2013-01-05 23:55:00,
2013-01-05 19:02:00,41.8,29.3,30.32,West,261,0.0,2.0,61,0.00,,,0.00,Wunderground v.1.15,2013-01-06 00:02:00,
2013-01-05 19:07:00,41.8,29.3,30.32,West,262,0.0,2.0,61,0.00,,,0.00,Wunderground v.1.15,2013-01-06 00:07:00,
2013-01-05 19:14:00,41.9,29.4,30.32,West,262,0.0,2.0,61,0.00,,,0.00,Wunderground v.1.15,2013-01-06 00:14:00,
2013-01-05 19:20:00,41.9,30.2,30.32,West,262,0.0,2.0,63,0.00,,,0.00,Wunderground v.1.15,2013-01-06 00:20:00,
2013-01-05 19:26:00,41.7,31.5,30.31,ESE,105,0.0,2.0,67,0.00,,,0.00,Wunderground v.1.15,2013-01-06 00:26:00,
2013-01-05 19:32:00,41.4,31.6,30.31,ESE,105,0.0,2.0,68,0.00,,,0.00,Wunderground v.1.15,2013-01-06 00:32:00,
2013-01-05 19:38:00,41.2,31.8,30.31,ESE,107,0.0,2.0,69,0.00,,,0.00,Wunderground v.1.15,2013-01-06 00:38:00,
2013-01-05 19:44:00,41.3,30.8,30.33,WSW,248,1.0,2.0,66,0.00,,,0.00,Wunderground v.1.15,2013-01-06 00:44:00,
2013-01-05 19:50:00,41.6,31.4,30.33,WSW,257,2.0,2.0,67,0.00,,,0.00,Wunderground v.1.15,2013-01-06 00:50:00,
2013-01-05 19:56:00,41.5,31.4,30.33,WSW,257,2.0,2.0,67,0.00,,,0.00,Wunderground v.1.15,2013-01-06 00:56:00,
2013-01-05 20:01:00,41.5,31.0,30.34,WSW,257,1.0,2.0,66,0.00,,,0.00,Wunderground v.1.15,2013-01-06 01:01:00,
2013-01-05 20:08:00,41.5,31.4,30.34,West,270,1.0,2.0,67,0.00,,,0.00,Wunderground v.1.15,2013-01-06 01:08:00,
2013-01-05 20:13:00,41.4,30.9,30.33,West,267,1.0,2.0,66,0.00,,,0.00,Wunderground v.1.15,2013-01-06 01:13:00,
2013-01-05 20:20:00,41.5,31.0,30.33,WSW,245,0.0,2.0,66,0.00,,,0.00,Wunderground v.1.15,2013-01-06 01:20:00,
2013-01-05 20:25:00,41.5,30.6,30.33,SW,224,0.0,2.0,65,0.00,,,0.00,Wunderground v.1.15,2013-01-06 01:25:00,
2013-01-05 20:31:00,41.5,30.6,30.33,West,269,1.0,2.0,65,0.00,,,0.00,Wunderground v.1.15,2013-01-06 01:31:00,
2013-01-05 20:37:00,41.4,32.7,30.32,SE,133,1.0,2.0,71,0.00,,,0.00,Wunderground v.1.15,2013-01-06 01:37:00,
2013-01-05 20:44:00,40.9,33.2,30.32,West,276,1.0,2.0,74,0.00,,,0.00,Wunderground v.1.15,2013-01-06 01:44:00,
2013-01-05 20:50:00,40.7,32.4,30.33,WNW,300,1.0,3.0,72,0.00,,,0.00,Wunderground v.1.15,2013-01-06 01:50:00,
2013-01-05 20:56:00,40.5,31.8,30.34,West,276,3.0,4.0,71,0.00,,,0.00,Wunderground v.1.15,2013-01-06 01:56:00,
2013-01-05 21:02:00,40.6,31.9,30.33,West,269,3.0,3.0,71,0.00,,,0.00,Wunderground v.1.15,2013-01-06 02:02:00,
2013-01-05 21:08:00,40.6,31.6,30.33,WSW,253,1.0,3.0,70,0.00,,,0.00,Wunderground v.1.15,2013-01-06 02:08:00,
2013-01-05 21:14:00,40.7,30.6,30.33,WSW,255,1.0,2.0,67,0.00,,,0.00,Wunderground v.1.15,2013-01-06 02:14:00,
2013-01-05 21:20:00,40.8,30.7,30.33,WSW,240,2.0,2.0,67,0.00,,,0.00,Wunderground v.1.15,2013-01-06 02:20:00,
2013-01-05 21:26:00,40.6,31.6,30.33,SSW,198,2.0,2.0,70,0.00,,,0.00,Wunderground v.1.15,2013-01-06 02:26:00,
2013-01-05 21:32:00,40.3,32.3,30.33,WSW,250,1.0,2.0,73,0.00,,,0.01,Wunderground v.1.15,2013-01-06 02:32:00,
2013-01-05 21:38:00,40.1,31.4,30.33,SE,132,1.0,2.0,71,0.00,,,0.01,Wunderground v.1.15,2013-01-06 02:38:00,
2013-01-05 21:43:00,39.6,33.9,30.33,SSE,149,1.0,2.0,80,0.00,,,0.01,Wunderground v.1.15,2013-01-06 02:43:00,
2013-01-05 21:49:00,39.1,34.1,30.34,West,277,1.0,3.0,82,0.00,,,0.01,Wunderground v.1.15,2013-01-06 02:49:00,
2013-01-05 21:55:00,39.1,32.8,30.34,WSW,252,2.0,3.0,78,0.00,,,0.01,Wunderground v.1.15,2013-01-06 02:55:00,
2013-01-05 22:02:00,39.2,32.6,30.34,West,266,2.0,2.0,77,0.00,,,0.01,Wunderground v.1.15,2013-01-06 03:02:00,
2013-01-05 22:08:00,39.2,33.2,30.33,SE,135,1.0,2.0,79,0.00,,,0.01,Wunderground v.1.15,2013-01-06 03:08:00,
2013-01-05 22:14:00,39.0,33.7,30.33,West,267,0.0,2.0,81,0.00,,,0.01,Wunderground v.1.15,2013-01-06 03:14:00,
2013-01-05 22:20:00,38.7,33.4,30.33,West,280,1.0,2.0,81,0.00,,,0.01,Wunderground v.1.15,2013-01-06 03:20:00,
2013-01-05 22:26:00,38.6,33.6,30.33,West,266,1.0,2.0,82,0.00,,,0.02,Wunderground v.1.15,2013-01-06 03:26:00,
2013-01-05 22:32:00,38.4,34.0,30.32,West,266,0.0,2.0,84,0.00,,,0.02,Wunderground v.1.15,2013-01-06 03:32:00,
2013-01-05 22:37:00,38.3,33.3,30.33,West,271,0.0,2.0,82,0.00,,,0.02,Wunderground v.1.15,2013-01-06 03:37:00,
2013-01-05 22:44:00,38.3,33.6,30.33,West,279,0.0,2.0,83,0.00,,,0.02,Wunderground v.1.15,2013-01-06 03:44:00,
2013-01-05 22:49:00,38.3,33.3,30.33,West,278,1.0,2.0,82,0.00,,,0.03,Wunderground v.1.15,2013-01-06 03:49:00,
2013-01-05 22:56:00,38.3,33.3,30.33,WSW,246,1.0,2.0,82,0.00,,,0.03,Wunderground v.1.15,2013-01-06 03:56:00,
2013-01-05 23:02:00,38.4,33.4,30.33,SSW,212,1.0,2.0,82,0.00,,,0.03,Wunderground v.1.15,2013-01-06 04:02:00,
2013-01-05 23:08:00,38.1,34.0,30.33,SW,219,1.0,2.0,85,0.00,,,0.03,Wunderground v.1.15,2013-01-06 04:08:00,
2013-01-05 23:14:00,38.1,33.7,30.33,SSW,207,1.0,2.0,84,0.00,,,0.03,Wunderground v.1.15,2013-01-06 04:14:00,
2013-01-05 23:20:00,38.0,33.9,30.32,SW,218,1.0,1.0,85,0.00,,,0.03,Wunderground v.1.15,2013-01-06 04:20:00,
2013-01-05 23:26:00,37.9,33.8,30.32,SW,236,0.0,2.0,85,0.00,,,0.03,Wunderground v.1.15,2013-01-06 04:26:00,
2013-01-05 23:32:00,37.9,33.8,30.33,SW,236,1.0,3.0,85,0.00,,,0.03,Wunderground v.1.15,2013-01-06 04:32:00,
2013-01-05 23:38:00,37.9,33.8,30.33,SW,227,2.0,3.0,85,0.00,,,0.04,Wunderground v.1.15,2013-01-06 04:38:00,
2013-01-05 23:43:00,37.9,34.1,30.32,SW,217,2.0,3.0,86,0.00,,,0.04,Wunderground v.1.15,2013-01-06 04:43:00,
2013-01-05 23:49:00,37.8,34.3,30.31,SSW,212,2.0,2.0,87,0.00,,,0.04,Wunderground v.1.15,2013-01-06 04:49:00,
2013-01-05 23:56:00,37.7,34.2,30.32,WSW,242,1.0,2.0,87,0.00,,,0.04,Wunderground v.1.15,2013-01-06 04:56:00,